Regional Weather Roundup
Issued by NWS Upton, NY

Current Version | Previous Version | Text Only | Print | Product List | Glossary On
Versions: 1 2 3 4 5 6 7 8 9 10 11 12 13 14 15 16 17 18 19 20 21 22 23 24 25 26 27 28 29 30 31 32 33 34 35 36 37 38 39 40 41 42 43
000 ASUS41 KOKX 272205 RWROKX REGIONAL WEATHER ROUNDUP NATIONAL WEATHER SERVICE NEW YORK NY 500 PM EST SAT DEC 27 2014 NOTE: "FAIR" INDICATES FEW OR NO CLOUDS BELOW 12,000 FEET WITH NO SIGNIFICANT WEATHER AND/OR OBSTRUCTIONS TO VISIBILITY. NYZ071-072-176-178-NJZ106-104-272300- NEW YORK CITY METRO AREA CITY SKY/WX TMP DP RH WIND PRES REMARKS CENTRAL PARK CLEAR 51 34 52 S8 30.18F LAGUARDIA APRT MOCLDY 50 34 54 S9 30.16F KENNEDY INTL MOCLDY 46 36 68 SE5 30.18F NEWARK/LIBERTY MOCLDY 51 35 54 SE8 30.16F BRNX BOT. GARD N/A 50 34 53 E1 30.16F TETERBORO CLEAR 50 35 56 S8 30.15F $$ NYZ177-179-078>081-272300- LONG ISLAND NEW YORK CITY SKY/WX TMP DP RH WIND PRES REMARKS FARMINGDALE CLEAR 46 36 68 S5 30.18S ISLIP MOCLDY 45 35 68 SW3 30.17R SHIRLEY CLEAR 45 33 63 CALM 30.20R WESTHAMPTON CLEAR 44 33 65 SW5 30.20R MONTAUK POINT N/A 46 38 73 SW3 30.20R $$ NYZ052-065-067-272300- HUDSON VALLEY CITY SKY/WX TMP DP RH WIND PRES REMARKS WHITE PLAINS CLEAR 45 34 65 CALM 30.15S NEWBURGH PTCLDY 48 37 66 CALM 30.15S MONTGOMERY PTCLDY 45 35 68 SW3 30.12F POUGHKEEPSIE PTCLDY 49 34 56 S3 30.13F ALBANY MOCLDY 46 32 58 S7 30.09F $$ NJZ001-105-106-008-010-013-015-019>022-104-272300- NEW JERSEY CITY SKY/WX TMP DP RH WIND PRES REMARKS NEWARK/LIBERTY MOCLDY 51 35 54 SE8 30.16F TETERBORO CLEAR 50 35 56 S8 30.15F CALDWELL PTCLDY 51 33 50 S3 30.16F MORRISTOWN CLEAR 52 34 50 SW5 30.16F SOMERVILLE PTCLDY 48 32 53 CALM 30.14F SUSSEX PTCLDY 48 35 60 CALM 30.14F ANDOVER NOT AVBL TRENTON PTCLDY 52 31 44 S3 30.16F MILLVILLE PTCLDY 46 37 71 CALM 30.18F ATLANTIC CITY PTCLDY 46 39 76 SE6 30.18F WRIGHTSTOWN CLEAR 48 33 55 CALM 30.15F TOMS RIVER CLEAR 46 37 71 S6 30.18F BELMAR PTCLDY 52 30 43 SW3 30.17F $$ PAZ047>061-062-071-272300- EASTERN PENNSYLVANIA CITY SKY/WX TMP DP RH WIND PRES REMARKS PHILADELPHIA MOCLDY 54 28 36 S6 30.17F ALLENTOWN PTCLDY 46 33 60 SW5 30.15F SCRANTON MOCLDY 49 32 52 CALM 30.12F $$ CTZ002-004>006-009-010-012-RIZ004-006-007-MAZ004-011-015-272300- SOUTHERN NEW ENGLAND IN CT CITY SKY/WX TMP DP RH WIND PRES REMARKS BRADLEY INTL MOCLDY 49 32 52 SW5 30.13F HARTFORD CLEAR 49 33 54 S7 30.15S DANBURY CLEAR 43 32 65 CALM 30.16S WTRBRY/OXFORD MOCLDY 46 32 57 CALM 30.15S BRIDGEPORT FAIR 46 36 68 SW3 30.17S MERIDEN PTCLDY 42 33 70 CALM 30.16R NEW HAVEN PTCLDY 44 33 65 SE3 30.17R CHESTER FAIR 46 32 57 S3 30.17R GROTON CLEAR 43 36 76 W7 30.18R WILLIMANTIC CLEAR 45 33 63 CALM 30.15R IN RI CITY SKY/WX TMP DP RH WIND PRES REMARKS PROVIDENCE MOCLDY 48 32 53 W3 30.15S BLOCK ISLAND CLEAR 46 37 71 SW10 30.17S WESTERLY CLEAR 44 37 76 SW3 30.18R IN MA CITY SKY/WX TMP DP RH WIND PRES REMARKS BOSTON PTCLDY 48 34 58 SW10 30.13S WORCESTER CLEAR 40 32 73 SW7 30.12S WESTFIELD CLEAR 43 31 62 S5 30.13F PROVINCETOWN CLEAR 43 34 70 S7 30.14S NANTUCKET PTCLDY 44 40 85 SW8 30.15F $$ ANZ330-335-338-340-345-350-353-355-272300- COASTAL MARINE OBSERVATIONS STATION/POSITION TIME SKY/WX TEMP WIND PRES VSBY WAVE AIR SEA DIR/SP/G HT/PER (UTC) (F) (DEG/KT/KT) (MB) (MI) (FT/S) NY HARB ENTRANCE 2200 47 45 200/ 4/ 6 1022.4 3/15 4S FIRE IS 2200 47 N/A 3/14 20S FIRE ISLAND 2100 49 49 1022.7 3/14 23SW MTP 2200 N/A 3/15 HUDSON CANYON 2200 51 55 230/ 10/ 12 1022.9 3/15 EXECUTION ROCKS 2200 49 42 180/ 8/ 10 N/A WESTERN LI SOUND 2200 50 170/ 4/ 6 N/A 0 CENTRAL LI SOUND 2100 44 44 180/ 4/ 6 N/A 1 EASTERN LI SOUND NOT AVBL ROBBINS REEF 2200 47 1020.3 $$ >>>>>>>>>>>>>>>>>>>>>>>>>>>> KEY <<<<<<<<<<<<<<<<<<<<<<<<<<< > < > SKY/WX - SKY CONDITION/PRESENT WEATHER < > TMP - TEMPERATURE IN FAHRENHEIT < > DP - DEWPOINT IN FAHRENHEIT < > RH - RELATIVE HUMIDITY IN PERCENT < > WIND - DIRECTION AND SPEED IN MPH < > PRES - MEAN SEA LEVEL PRESSURE IN INCHES OF HG < > WCI - WIND CHILL INDEX < > VSB - VISIBILITY IN MILES < > HX - HEAT INDEX < > TC - TEMPERATURE IN CELSIUS < > VRB - VARIABLE WIND DIRECTION < > < >>>>>>>>>>>>>>>>>>>>>>>>>>>> KEY <<<<<<<<<<<<<<<<<<<<<<<<<<<

USA.gov is the U.S. government's official web portal to all federal, state and local government web resources and services.